[[[{"header":{"parameterUnit":"kt","parameterCategory":2,"dx":1,"dy":1,"la1":30.253999710083008,"la2":30.299108505249023,"lo1":-89.0895004272461,"lo2":-89.04439544677734,"nx":28,"ny":28,"refTime":"2022-10-28T21:00:00:Z","depth":0,"parameterNumber":1,"parameterNumberName":"U-component_of_WINDS"},"data":[-12.0418,-12.0723,-12.0895,-12.132,-12.1547,-12.1867,-12.2036,-12.2273,-12.2504,-12.2904,-12.3165,-12.3367,-12.3665,-12.4016,-12.4306,-12.439,-12.4499,-12.4482,-12.4582,-12.4507,-12.4508,-12.4509,-12.4448,-12.4503,-12.4504,-12.4635,-12.4636,-12.4637,-12.0345,-12.0572,-12.0849,-12.1233,-12.1471,-12.1592,-12.1906,-12.2096,-12.2379,-12.2666,-12.2933,-12.3299,-12.3609,-12.392,-12.4247,-12.4392,-12.4466,-12.4468,-12.4459,-12.4503,-12.443,-12.4364,-12.4402,-12.4402,-12.4402,-12.4402,-12.4402,-12.4402,-12.0259,-12.0435,-12.0769,-12.1072,-12.1313,-12.1568,-12.1765,-12.2013,-12.2284,-12.2649,-12.2801,-12.3124,-12.3444,-12.3923,-12.4126,-12.4381,-12.441,-12.4465,-12.4479,-12.4488,-12.4474,-12.4257,-12.4445,-12.4446,-12.4446,-12.4447,-12.4447,0,-12.0249,-12.0382,-12.066,-12.0989,-12.1219,-12.149,-12.1768,-12.1895,-12.2234,-12.2444,-12.2762,-12.2974,-12.3393,-12.371,-12.4055,-12.4259,-12.4402,-12.4437,-12.4476,-12.4404,-12.4296,-12.4355,-12.4225,-12.4429,-12.443,-12.443,-12.4431,-12.4431,-12.0173,-12.036,-12.0794,-12.0965,-12.1161,-12.1433,-12.1631,-12.1917,-12.2114,-12.2497,-12.2637,-12.2961,-12.3234,-12.3714,-12.3998,-12.4311,-12.4384,-12.4442,-12.4431,-12.4356,-12.4383,-12.4368,-12.4388,-12.4437,-12.4436,-12.4436,-12.4435,0,-12.0114,-12.0398,-12.0742,-12.1155,-12.1264,-12.1443,-12.1796,-12.1983,-12.2204,-12.2492,-12.2576,-12.292,-12.3227,-12.3507,-12.3913,-12.4048,-12.4344,-12.4409,-12.4236,-12.4263,-12.4341,-12.4329,-12.4557,-12.4601,-12.4549,-12.4549,-12.4549,0,-12.016,-12.0393,-12.0803,-12.0988,-12.1256,-12.154,-12.1797,-12.2012,-12.2296,-12.2526,-12.2737,-12.2947,-12.3272,-12.3523,-12.3724,-12.4016,-12.4093,-12.4213,-12.4263,-12.4194,-12.4178,-12.4299,-12.4294,-12.4372,-12.4371,-12.437,-12.4369,0,-12.0035,-12.053,-12.0832,-12.099,-12.1454,-12.1588,-12.1787,-12.2107,-12.2298,-12.259,-12.2717,-12.3036,-12.321,-12.3452,-12.3707,-12.3689,-12.4072,-12.4099,-12.4194,-12.4188,-12.4262,-12.4253,-12.4388,-12.4367,-12.4366,-12.4366,-12.4365,0,-12.0115,-12.0409,-12.0805,-12.1197,-12.1315,-12.1513,-12.1849,-12.2084,-12.2406,-12.2547,-12.2779,-12.2952,-12.3233,-12.3239,-12.3629,-12.3533,-12.3692,-12.3834,-12.3846,-12.3886,-12.3884,-12.392,-12.4022,-12.4042,-12.3924,-12.3921,-12.3918,0,-11.9894,-12.0371,-12.062,-12.099,-12.1249,-12.1471,-12.1697,-12.1976,-12.2184,-12.2432,-12.2661,-12.2941,-12.3006,-12.3132,-12.3289,-12.3534,-12.3659,-12.3527,-12.3876,-12.3885,-12.3781,-12.388,-12.3824,-12.3969,-12.3875,-12.3879,-12.3883,0,-11.9758,-12.0323,-12.0371,-12.0564,-12.0982,-12.12,-12.1459,-12.1802,-12.1953,-12.2244,-12.2468,-12.2869,-12.2935,-12.314,-12.3315,-12.3463,-12.3583,-12.3513,-12.3525,-12.3514,-12.3877,-12.3823,-12.3846,-12.3668,-12.3673,-12.3678,-12.3848,0,-11.9812,-12.0089,-12.0234,-12.065,-12.0864,-12.1112,-12.1413,-12.1597,-12.1745,-12.1959,-12.2293,-12.2595,-12.294,-12.3042,-12.3188,-12.3438,-12.3439,-12.3505,-12.353,-12.3593,-12.3656,-12.3682,-12.3411,-12.3414,-12.3416,-12.3418,0,0,-11.9527,-11.9931,-12.0196,-12.046,-12.0656,-12.0884,-12.1122,-12.1339,-12.177,-12.19,-12.1917,-12.2524,-12.2768,-12.3142,-12.3185,-12.3325,-12.3397,-12.3363,-12.3561,-12.3575,-12.359,-12.3652,-12.3675,-12.3421,-12.3422,-12.3423,-12.3424,0,-11.961,-11.986,-12.0094,-12.0332,-12.0694,-12.091,-12.0965,-12.1363,-12.151,-12.1841,-12.2021,-12.2257,-12.2735,-12.297,-12.3151,-12.3327,-12.3447,-12.341,-12.3403,-12.3572,-12.3583,-12.3595,-12.3657,-12.3676,-12.3429,-12.3428,-12.3428,0,-11.9529,-11.9824,-11.9969,-12.0429,-12.0667,-12.0927,-12.103,-12.13,-12.1496,-12.1729,-12.2052,-12.226,-12.2599,-12.2913,-12.3066,-12.3085,-12.3476,-12.3406,-12.3401,-12.3424,-12.3601,-12.3615,-12.3627,-12.3463,-12.3462,-12.3461,0,0,-11.9558,-11.9818,-12.0223,-12.0469,-12.0606,-12.0931,-12.11,-12.1267,-12.1569,-12.1688,-12.1958,-12.2243,-12.2525,-12.2703,-12.2982,-12.3286,-12.3377,-12.3398,-12.3397,-12.3395,-12.3414,-12.359,-12.3604,-12.3457,-12.3457,-12.3457,0,0,-11.9572,-12.0052,-12.015,-12.0474,-12.0756,-12.1169,-12.1307,-12.1435,-12.1718,-12.1722,-12.2013,-12.2102,-12.2402,-12.2598,-12.2508,-12.2996,-12.3015,-12.3043,-12.2856,-12.2859,-12.2858,-12.2803,-12.2651,0,0,0,0,0,-11.9811,-11.9994,-12.0077,-12.0176,-12.0757,-12.1123,-12.1199,-12.1445,-12.1454,-12.1558,-12.1803,-12.1923,-12.261,-12.2537,-12.2629,-12.2726,-12.3403,-12.3413,-12.3422,-12.3255,-12.3254,-12.3253,0,0,0,0,0,0,-11.9852,-11.9973,-12.0073,-12.0489,-12.0623,-12.1119,-12.1188,-12.1261,-12.1449,-12.1467,-12.1872,-12.1936,-12.215,-12.2506,-12.2586,-12.2672,-12.2625,-12.3407,-12.3415,-12.3423,-12.3254,-12.3253,-12.3253,0,0,0,0,0,-11.9886,-11.9984,-12.085,-12.0489,-12.0605,-12.0976,-12.1183,-12.1245,-12.1394,-12.1776,-12.1843,-12.1563,-12.2146,-12.223,-12.2555,-12.263,-12.2572,-12.2601,-12.3412,-12.3419,-12.3425,-12.3254,0,0,0,0,0,0,-11.9912,-12.0042,-12.0879,-12.0923,-12.0439,-12.0953,-12.1042,-12.1229,-12.1696,-12.1764,-12.148,-12.1489,-12.2146,-12.2211,-12.2275,-12.2602,-12.2528,-12.2558,-12.2576,-12.3417,-12.3422,-12.3427,0,0,0,0,0,0,-11.9991,-12.0077,-12.0902,-12.0825,-12.0863,-12.093,-12.101,-12.132,-12.1698,-12.1375,-12.1397,-12.1478,-12.2049,-12.2198,-12.2248,-12.2723,-12.2495,-12.2523,-12.2542,-12.2555,-12.3421,-12.3425,0,0,0,0,0,0,-12.0032,-12.0106,-12.0815,-12.0844,-12.0877,-12.1392,-12.1209,-12.1789,-12.1634,-12.135,-12.1627,-12.1623,-12.2033,-12.2089,-12.2229,-12.2682,-12.2713,-12.2496,-12.2515,-12.2528,-12.2537,0,0,0,0,0,0,0,-12.0065,-11.9509,-12.0616,-12.086,-12.0889,-12.1332,-12.1344,-12.1356,-12.1633,-12.163,-12.1627,-12.1625,-12.2335,-12.2365,-12.2397,-12.2648,0,0,-12.2493,-12.2507,0,0,0,0,0,0,0,0,-11.9483,-11.9502,-12.0618,-12.0627,-12.0636,-12.1334,-12.1344,-12.1354,-12.1633,-12.163,-12.1628,-12.1626,-12.2343,-12.2368,-12.2393,0,0,0,0,0,0,0,0,0,0,0,0,0,0,0,-12.0619,-12.0626,0,-12.1335,-12.1344,-12.1352,-12.1632,-12.163,-12.1629,-12.1627,-12.235,-12.237,-12.2391,0,0,0,0,0,0,0,0,0,0,0,0,0,0,0,0,0,0,0,0,0,0,0,0,0,0,0,0,0,0,0,0,0,0,0,0,0,0,0,0,0,0,0,0,0,0,0,0,0,0,0,0,0,0,0,0,0,0,0,0,0,0,0,0,0,0,0,0,0]}],[{"header":{"parameterUnit":"kt","parameterCategory":2,"dx":1,"dy":1,"la1":30.253999710083008,"la2":30.299108505249023,"lo1":-89.0895004272461,"lo2":-89.04439544677734,"nx":28,"ny":28,"refTime":"2022-10-28T21:00:00:Z","depth":0,"parameterNumber":2,"parameterNumberName":"V-component_of_WINDS"},"data":[11.5484,11.5772,11.5873,11.6247,11.6399,11.6673,11.6802,11.6979,11.7143,11.7479,11.7689,11.7814,11.8014,11.8286,11.8516,11.8566,11.8658,11.8693,11.8745,11.8504,11.8477,11.8451,11.8392,11.8711,11.8711,11.8983,11.8985,11.8987,11.5315,11.547,11.5695,11.598,11.6175,11.6205,11.6432,11.6593,11.6834,11.7037,11.7246,11.7547,11.7795,11.7985,11.8239,11.8375,11.8401,11.8438,11.843,11.8461,11.8207,11.8143,11.8414,11.8413,11.8413,11.8413,11.8413,11.8413,11.5034,11.5201,11.5431,11.5676,11.5845,11.6034,11.621,11.6361,11.6579,11.6857,11.6926,11.7199,11.7417,11.7765,11.7903,11.8118,11.8093,11.8161,11.8179,11.8195,11.8203,11.781,11.8163,11.8163,11.8162,11.8162,11.8162,0,11.4859,11.4931,11.515,11.5401,11.5584,11.5786,11.5986,11.6097,11.6272,11.6444,11.6701,11.6865,11.7186,11.7437,11.7692,11.7822,11.7863,11.7874,11.7923,11.7896,11.7844,11.7881,11.7467,11.7862,11.786,11.7858,11.7857,11.7856,11.4586,11.4766,11.5049,11.519,11.5323,11.5546,11.57,11.584,11.5996,11.626,11.6398,11.665,11.6859,11.7249,11.7414,11.7652,11.7673,11.7816,11.7708,11.7679,11.7682,11.7672,11.7693,11.7833,11.7836,11.7838,11.784,0,11.4426,11.458,11.4888,11.5147,11.5218,11.5398,11.5619,11.5788,11.5911,11.6161,11.6227,11.6418,11.6664,11.6807,11.7112,11.7179,11.7483,11.7495,11.7413,11.7424,11.757,11.7556,11.8007,11.8076,11.7742,11.7745,11.7747,0,11.4254,11.4481,11.47,11.4869,11.5129,11.5262,11.5515,11.5645,11.5831,11.6029,11.6098,11.6281,11.6433,11.6637,11.6734,11.7007,11.7061,11.713,11.7153,11.7126,11.7118,11.7207,11.7193,11.7192,11.7189,11.7187,11.7185,0,11.3987,11.4365,11.4642,11.4752,11.5046,11.5172,11.53,11.5507,11.5652,11.5862,11.5959,11.6191,11.6319,11.6499,11.6623,11.6546,11.6956,11.6875,11.7026,11.7023,11.7108,11.7101,11.7466,11.7182,11.7181,11.7181,11.718,0,11.3871,11.4084,11.4457,11.4706,11.4799,11.4977,11.5219,11.5405,11.5616,11.5691,11.5856,11.5916,11.616,11.6072,11.6412,11.6278,11.6401,11.6486,11.65,11.653,11.6427,11.6618,11.6948,11.6991,11.6561,11.6556,11.6552,0,11.3527,11.3942,11.4059,11.4408,11.462,11.4687,11.4888,11.5071,11.5187,11.5382,11.5507,11.5725,11.5688,11.5775,11.5925,11.6062,11.6236,11.6042,11.6322,11.6331,11.627,11.6576,11.6591,11.6861,11.6487,11.6494,11.6499,0,11.3278,11.363,11.3683,11.3816,11.4078,11.4252,11.448,11.4727,11.4852,11.5045,11.5242,11.5547,11.5535,11.5674,11.5744,11.5893,11.6122,11.5856,11.5863,11.5903,11.6463,11.6479,11.6523,11.6137,11.6145,11.6151,11.6447,0,11.3079,11.3301,11.3451,11.3731,11.3886,11.4108,11.4258,11.4402,11.4458,11.4572,11.4858,11.5036,11.528,11.5363,11.5413,11.5706,11.5679,11.5658,11.558,11.5777,11.5879,11.592,11.5418,11.5417,11.5416,11.5415,0,0,11.2713,11.3033,11.3147,11.3373,11.3512,11.3572,11.3798,11.3938,11.4216,11.4311,11.427,11.4724,11.4868,11.5199,11.5272,11.5367,11.5434,11.5355,11.5681,11.571,11.5738,11.5844,11.5884,11.5412,11.5412,11.5411,11.5411,0,11.2671,11.2821,11.3041,11.3193,11.3421,11.353,11.3583,11.3816,11.3898,11.4176,11.4218,11.4405,11.4757,11.4909,11.5031,11.5321,11.5339,11.5383,11.5494,11.5663,11.5694,11.5722,11.5832,11.5869,11.5408,11.5408,11.5408,0,11.2455,11.2629,11.2749,11.3062,11.3209,11.3419,11.3378,11.3597,11.3755,11.38,11.4073,11.419,11.4399,11.4689,11.4824,11.4789,11.5246,11.5122,11.5134,11.5151,11.5322,11.5359,11.5391,11.496,11.4958,11.4956,0,0,11.2397,11.2601,11.2826,11.3063,11.3154,11.3316,11.3439,11.3505,11.3694,11.3768,11.3917,11.4098,11.4306,11.4438,11.4639,11.4935,11.499,11.5061,11.5082,11.5099,11.5125,11.53,11.5336,11.4948,11.4948,11.4948,0,0,11.2368,11.2639,11.2661,11.2954,11.3135,11.3368,11.3507,11.3537,11.3732,11.3722,11.3838,11.389,11.4163,11.4272,11.415,11.4614,11.4534,11.4565,11.4531,11.456,11.4581,11.4549,11.4125,0,0,0,0,0,11.2398,11.2607,11.2624,11.2694,11.3083,11.3359,11.341,11.3513,11.3458,11.3567,11.3697,11.3705,11.4232,11.4127,11.4193,11.4328,11.4845,11.4864,11.4881,11.4908,11.4936,11.496,0,0,0,0,0,0,11.2427,11.2513,11.2618,11.2858,11.2947,11.3353,11.3282,11.3316,11.3449,11.3447,11.3681,11.3713,11.3802,11.4099,11.4158,11.4283,11.4106,11.4853,11.4868,11.4882,11.4918,11.4941,11.4961,0,0,0,0,0,11.245,11.2519,11.3116,11.2856,11.2933,11.3121,11.3275,11.3303,11.3407,11.3605,11.3637,11.3473,11.3803,11.3859,11.4135,11.4255,11.4066,11.4088,11.4863,11.4875,11.4886,11.4929,0,0,0,0,0,0,11.2467,11.2546,11.3134,11.3161,11.2783,11.31,11.3153,11.3291,11.3558,11.3592,11.3401,11.3397,11.3806,11.3849,11.3892,11.4239,11.4034,11.4056,11.4069,11.4872,11.4882,11.489,0,0,0,0,0,0,11.2509,11.2569,11.3148,11.3051,11.3068,11.308,11.3128,11.3373,11.356,11.3339,11.3344,11.3396,11.374,11.3843,11.3877,11.4255,11.4009,11.403,11.4044,11.4053,11.488,11.4887,0,0,0,0,0,0,11.2536,11.2587,11.3044,11.3058,11.3072,11.3385,11.3298,11.369,11.3481,11.3326,11.3465,11.3457,11.3734,11.377,11.3866,11.423,11.4249,11.401,11.4024,11.4034,11.4041,0,0,0,0,0,0,0,11.2558,11.2193,11.2973,11.3063,11.3076,11.3413,11.3421,11.3428,11.3479,11.3473,11.3466,11.346,11.389,11.3913,11.3936,11.421,0,0,11.4008,11.4018,0,0,0,0,0,0,0,0,11.2174,11.2188,11.2974,11.298,11.2985,11.3415,11.3421,11.3427,11.3478,11.3473,11.3468,11.3463,11.3896,11.3915,11.3933,0,0,0,0,0,0,0,0,0,0,0,0,0,0,0,11.2975,11.2979,0,11.3415,11.342,11.3425,11.3478,11.3473,11.3469,11.3465,11.3901,11.3916,11.3932,0,0,0,0,0,0,0,0,0,0,0,0,0,0,0,0,0,0,0,0,0,0,0,0,0,0,0,0,0,0,0,0,0,0,0,0,0,0,0,0,0,0,0,0,0,0,0,0,0,0,0,0,0,0,0,0,0,0,0,0,0,0,0,0,0,0,0,0,0]}]]]